Weather History for Nashua, NH

Change the Weather History Date:

Wednesday, October 24, 2012

  Actual Average Record
Temperature  
Mean Temperature 48 °F -  
Max Temperature 59 °F 60 °F 80 °F (1963)
Min Temperature 38 °F 33 °F 16 °F (1969)
Degree Days  
Heating Degree Days 16    
Moisture  
Dew Point 38 °F    
Average Humidity 73    
Maximum Humidity 89    
Minimum Humidity 44    
Precipitation  
Precipitation 0.00 in - - ()
Sea Level Pressure  
Sea Level Pressure 30.19 in    
Wind  
Wind Speed 2 mph (WNW)    
Max Wind Speed 5 mph    
Max Gust Speed -    
Visibility 10 miles    
Events      
Averages and records for this station are not official NWS values.
T = Trace of Precipitation, MM = Missing Value Source: NWS Daily Summary

Daily Weather History Graph

Daily Weather History Graph

Search for Another Location

Airport:

Trip Planner

Search our weather history database for the weather conditions in past years. The results will help you decide how hot, cold, wet, or windy it might be!

Date:

Astronomy

Oct. 24, 2012 Rise Set
Actual Time 7:10 AM EDT 5:48 PM EDT
Civil Twilight 6:41 AM EDT 6:17 PM EDT
Nautical Twilight 6:08 AM EDT 6:50 PM EDT
Astronomical Twilight 5:35 AM EDT 7:23 PM EDT
Moon 3:09 PM EDT (10/24) 1:56 AM EDT (10/24)
Length of Visible Light 11h 36m
Length of Day
10h 38m
Waxing Gibbous, 76% of the Moon is Illuminated
Oct 24
Waxing Gibbous
Oct 29
Full
Nov 6
Last Quarter
Nov 13
New
Nov 20
First Quarter

Hourly Weather History & Observations

Time (EDT) Temp. Windchill Dew Point Humidity Pressure Visibility Wind Dir Wind Speed Gust Speed Precip Events Conditions
12:51 AM 46.9 °F - 41.9 °F 83% 30.16 in 10.0 mi NNW 3.5 mph - N/A   Mostly Cloudy
1:51 AM 45.9 °F - 41.9 °F 86% 30.17 in 10.0 mi Calm Calm - N/A   Mostly Cloudy
2:51 AM 43.9 °F - 39.9 °F 86% 30.17 in 10.0 mi Calm Calm - N/A   Clear
3:51 AM 41.9 °F - 38.8 °F 89% 30.18 in 10.0 mi Calm Calm - N/A   Clear
4:51 AM 39.9 °F 37.8 °F 36.9 °F 89% 30.19 in 10.0 mi NW 3.5 mph - N/A   Clear
5:51 AM 38.8 °F 36.5 °F 36.0 °F 89% 30.19 in 10.0 mi NW 3.5 mph - N/A   Scattered Clouds
6:51 AM 39.9 °F 37.8 °F 36.9 °F 89% 30.21 in 10.0 mi NW 3.5 mph - N/A   Partly Cloudy
7:51 AM 38.8 °F - 36.0 °F 89% 30.23 in 10.0 mi Calm Calm - N/A   Clear
8:30 AM 42.8 °F 41.1 °F 37.4 °F 81% 30.22 in 2.0 mi WNW 3.5 mph - N/A   Haze
8:39 AM 42.8 °F 41.1 °F 37.4 °F 81% 30.22 in 10.0 mi NW 3.5 mph - N/A   Clear
8:51 AM 43.9 °F 42.3 °F 36.9 °F 76% 30.23 in 10.0 mi NW 3.5 mph - N/A   Clear
9:51 AM 48.9 °F - 36.0 °F 61% 30.22 in 10.0 mi Calm Calm - N/A   Mostly Cloudy
12:51 PM 54.9 °F - 34.9 °F 47% 30.19 in 10.0 mi Calm Calm - N/A   Mostly Cloudy
1:51 PM 56.8 °F - 37.9 °F 49% 30.17 in 10.0 mi SW 4.6 mph - N/A   Partly Cloudy
2:51 PM 59.0 °F - 36.9 °F 44% 30.15 in 10.0 mi Variable 4.6 mph - N/A   Mostly Cloudy
3:51 PM 57.9 °F - 36.9 °F 45% 30.15 in 10.0 mi Variable 3.5 mph - N/A   Partly Cloudy
4:51 PM 55.9 °F - 37.9 °F 51% 30.16 in 10.0 mi South 3.5 mph - 0.00 in   Mostly Cloudy
5:51 PM 54.0 °F - 38.8 °F 57% 30.18 in 10.0 mi Calm Calm - N/A   Overcast
6:51 PM 52.9 °F - 38.8 °F 59% 30.19 in 10.0 mi Calm Calm - N/A   Overcast
7:51 PM 52.0 °F - 41.0 °F 66% 30.21 in 10.0 mi Calm Calm - N/A   Overcast
9:51 PM 45.0 °F - 38.8 °F 79% 30.23 in 10.0 mi Calm Calm - N/A   Clear
10:51 PM 43.0 °F - 38.8 °F 85% 30.23 in 10.0 mi Calm Calm - N/A   Clear
11:51 PM 41.0 °F - 37.9 °F 89% 30.23 in 10.0 mi Calm Calm - N/A   Clear